When you browse on this site, cookies collect data to enhance your experience and personalize the content and advertising you see.
Visit our Privacy Policy to learn more. By continuing to use the site, you agree to this use of cookies and data.

Stündliche Wetter Puerto Salgar

Heute, 14 Juli, Dienstag

Zeit Temperatur Niederschläge Wind Luftdruck Luftfeuchtigkeit
00:00 +25°C° 0.6 mm 1 m/S 746 mmHg 93%
01:00 +25°C° 0.6 mm 1 m/S 746 mmHg 94%
02:00 +24°C° 1.7 mm 1 m/S 746 mmHg 95%
03:00 +24°C° 1.7 mm 1 m/S 745 mmHg 95%
04:00 +22°C° 1.7 mm 0 m/S 745 mmHg 96%
05:00 +22°C° 0.8 mm 0 m/S 746 mmHg 95%
06:00 +22°C° 0.8 mm 0 m/S 746 mmHg 94%
07:00 +23°C° 0.8 mm 0 m/S 747 mmHg 93%
08:00 +25°C° 0.2 mm 0 m/S 746 mmHg 85%
09:00 +27°C° 0.2 mm 0 m/S 746 mmHg 77%
10:00 +29°C° 0.2 mm 0 m/S 746 mmHg 69%
11:00 +32°C° 0 mm 1 m/S 745 mmHg 64%
12:00 +34°C° 0 mm 1 m/S 745 mmHg 59%
13:00 +35°C° 0 mm 1 m/S 744 mmHg 54%
14:00 +35°C° 0.3 mm 1 m/S 743 mmHg 56%
15:00 +34°C° 0.3 mm 1 m/S 743 mmHg 58%
16:00 +34°C° 0.3 mm 1 m/S 742 mmHg 61%
17:00 +32°C° 0.1 mm 1 m/S 743 mmHg 68%
18:00 +30°C° 0.1 mm 1 m/S 744 mmHg 76%
19:00 +26°C° 0.1 mm 0 m/S 745 mmHg 83%
20:00 +26°C° 0.7 mm 0 m/S 745 mmHg 85%
21:00 +25°C° 0.7 mm 0 m/S 746 mmHg 87%
22:00 +26°C° 0.7 mm 1 m/S 746 mmHg 89%
23:00 +26°C° 1.4 mm 1 m/S 746 mmHg 91%

Morgen, 15 Juli, Mittwoch

Zeit Temperatur Niederschläge Wind Luftdruck Luftfeuchtigkeit
00:00 +25°C° 1.4 mm 1 m/S 746 mmHg 93%
01:00 +24°C° 1.4 mm 1 m/S 746 mmHg 95%
02:00 +24°C° 0.8 mm 1 m/S 746 mmHg 95%
03:00 +24°C° 0.8 mm 1 m/S 746 mmHg 95%
04:00 +23°C° 0.8 mm 1 m/S 745 mmHg 95%
05:00 +24°C° 0.1 mm 1 m/S 746 mmHg 94%
06:00 +24°C° 0.1 mm 1 m/S 746 mmHg 93%
07:00 +24°C° 0.1 mm 1 m/S 746 mmHg 92%
08:00 +27°C° 0 mm 1 m/S 746 mmHg 81%
09:00 +29°C° 0 mm 1 m/S 746 mmHg 71%
10:00 +31°C° 0 mm 1 m/S 746 mmHg 61%
11:00 +34°C° 0 mm 2 m/S 745 mmHg 55%
12:00 +35°C° 0 mm 2 m/S 744 mmHg 50%
13:00 +37°C° 0 mm 2 m/S 743 mmHg 44%
14:00 +37°C° 0 mm 2 m/S 742 mmHg 46%
15:00 +36°C° 0 mm 2 m/S 742 mmHg 47%
16:00 +36°C° 0 mm 2 m/S 741 mmHg 49%
17:00 +33°C° 0.1 mm 1 m/S 742 mmHg 57%
18:00 +31°C° 0.1 mm 1 m/S 743 mmHg 66%
19:00 +29°C° 0.1 mm 1 m/S 744 mmHg 74%
20:00 +28°C° 0.3 mm 1 m/S 744 mmHg 77%
21:00 +27°C° 0.3 mm 1 m/S 745 mmHg 80%
22:00 +27°C° 0.3 mm 1 m/S 746 mmHg 83%
23:00 +26°C° 0.6 mm 1 m/S 746 mmHg 87%

übermorgen, 16 Juli, Donnerstag

Zeit Temperatur Niederschläge Wind Luftdruck Luftfeuchtigkeit
00:00 +23°C° 0.6 mm 0 m/S 746 mmHg 91%
01:00 +22°C° 0.6 mm 0 m/S 746 mmHg 94%
02:00 +22°C° 0 mm 0 m/S 745 mmHg 94%
03:00 +22°C° 0 mm 0 m/S 745 mmHg 94%
04:00 +21°C° 0 mm 0 m/S 745 mmHg 94%
05:00 +22°C° 0 mm 0 m/S 745 mmHg 92%
06:00 +22°C° 0 mm 0 m/S 746 mmHg 91%
07:00 +23°C° 0 mm 0 m/S 746 mmHg 89%
08:00 +25°C° 0 mm 0 m/S 746 mmHg 80%
09:00 +30°C° 0 mm 1 m/S 746 mmHg 71%
10:00 +32°C° 0 mm 1 m/S 746 mmHg 62%
11:00 +33°C° 0 mm 1 m/S 745 mmHg 57%
12:00 +34°C° 0 mm 1 m/S 744 mmHg 53%
13:00 +35°C° 0 mm 1 m/S 743 mmHg 48%
14:00 +35°C° 0 mm 1 m/S 743 mmHg 49%
15:00 +35°C° 0 mm 1 m/S 742 mmHg 50%
16:00 +35°C° 0 mm 1 m/S 742 mmHg 50%
17:00 +33°C° 0.1 mm 1 m/S 743 mmHg 60%
18:00 +31°C° 0.1 mm 1 m/S 743 mmHg 70%
19:00 +28°C° 0.1 mm 1 m/S 744 mmHg 80%
20:00 +28°C° 0.5 mm 1 m/S 745 mmHg 83%
21:00 +27°C° 0.5 mm 1 m/S 745 mmHg 85%
22:00 +24°C° 0.5 mm 0 m/S 746 mmHg 87%
23:00 +24°C° 1.4 mm 0 m/S 746 mmHg 90%

17 Juli, Freitag

Zeit Temperatur Niederschläge Wind Luftdruck Luftfeuchtigkeit
00:00 +23°C° 1.4 mm 0 m/S 746 mmHg 92%
01:00 +23°C° 1.4 mm 0 m/S 746 mmHg 95%
02:00 +22°C° 1.2 mm 0 m/S 745 mmHg 95%
03:00 +22°C° 1.2 mm 0 m/S 745 mmHg 96%
04:00 +22°C° 1.2 mm 0 m/S 745 mmHg 96%
05:00 +22°C° 0.4 mm 0 m/S 746 mmHg 95%
06:00 +23°C° 0.4 mm 0 m/S 746 mmHg 95%
07:00 +23°C° 0.4 mm 0 m/S 746 mmHg 94%
08:00 +27°C° 0 mm 1 m/S 746 mmHg 85%
09:00 +29°C° 0 mm 1 m/S 746 mmHg 75%
10:00 +32°C° 0 mm 1 m/S 746 mmHg 66%
11:00 +33°C° 0 mm 1 m/S 745 mmHg 60%
12:00 +35°C° 0 mm 2 m/S 744 mmHg 54%
13:00 +36°C° 0 mm 2 m/S 743 mmHg 48%
14:00 +36°C° 0.1 mm 2 m/S 743 mmHg 49%
15:00 +36°C° 0.1 mm 2 m/S 742 mmHg 49%
16:00 +35°C° 0.1 mm 1 m/S 742 mmHg 49%
17:00 +33°C° 0.2 mm 1 m/S 743 mmHg 58%
18:00 +30°C° 0.2 mm 1 m/S 743 mmHg 66%
19:00 +26°C° 0.2 mm 0 m/S 744 mmHg 75%
20:00 +26°C° 0.6 mm 0 m/S 744 mmHg 79%
21:00 +25°C° 0.6 mm 0 m/S 745 mmHg 83%
22:00 +24°C° 0.6 mm 0 m/S 746 mmHg 88%
23:00 +26°C° 0.5 mm 1 m/S 746 mmHg 90%

18 Juli, Samstag

Zeit Temperatur Niederschläge Wind Luftdruck Luftfeuchtigkeit
00:00 +25°C° 0.5 mm 1 m/S 745 mmHg 92%
01:00 +25°C° 0.5 mm 1 m/S 745 mmHg 94%
02:00 +24°C° 0.1 mm 1 m/S 745 mmHg 94%
03:00 +24°C° 0.1 mm 1 m/S 745 mmHg 93%
04:00 +24°C° 0.1 mm 1 m/S 745 mmHg 93%
05:00 +24°C° 0 mm 1 m/S 745 mmHg 92%
06:00 +23°C° 0 mm 0 m/S 745 mmHg 90%
07:00 +23°C° 0 mm 0 m/S 746 mmHg 89%
08:00 +25°C° 0 mm 0 m/S 746 mmHg 79%
09:00 +30°C° 0 mm 1 m/S 745 mmHg 70%
10:00 +32°C° 0 mm 1 m/S 745 mmHg 61%
11:00 +33°C° 0 mm 1 m/S 744 mmHg 56%
12:00 +36°C° 0 mm 2 m/S 743 mmHg 50%
13:00 +37°C° 0 mm 2 m/S 742 mmHg 45%
14:00 +37°C° 0 mm 2 m/S 742 mmHg 46%
15:00 +37°C° 0 mm 2 m/S 742 mmHg 48%
16:00 +36°C° 0 mm 2 m/S 741 mmHg 49%
17:00 +33°C° 0.1 mm 1 m/S 742 mmHg 58%
18:00 +31°C° 0.1 mm 1 m/S 743 mmHg 68%
19:00 +27°C° 0.1 mm 0 m/S 743 mmHg 77%
20:00 +28°C° 0.2 mm 1 m/S 744 mmHg 79%
21:00 +27°C° 0.2 mm 1 m/S 745 mmHg 81%
22:00 +27°C° 0.2 mm 1 m/S 746 mmHg 82%
23:00 +26°C° 0.8 mm 1 m/S 745 mmHg 85%

19 Juli, Sonntag

Zeit Temperatur Niederschläge Wind Luftdruck Luftfeuchtigkeit
00:00 +25°C° 0.8 mm 1 m/S 745 mmHg 88%
01:00 +25°C° 0.8 mm 1 m/S 745 mmHg 90%
02:00 +24°C° 0.2 mm 1 m/S 745 mmHg 90%
03:00 +24°C° 0.2 mm 1 m/S 745 mmHg 90%
04:00 +24°C° 0.2 mm 1 m/S 744 mmHg 90%
05:00 +22°C° 0 mm 0 m/S 745 mmHg 89%
06:00 +23°C° 0 mm 0 m/S 745 mmHg 88%
07:00 +23°C° 0 mm 0 m/S 745 mmHg 86%
08:00 +27°C° 0 mm 1 m/S 745 mmHg 77%
09:00 +30°C° 0 mm 1 m/S 745 mmHg 67%
10:00 +32°C° 0 mm 1 m/S 745 mmHg 57%
11:00 +34°C° 0 mm 1 m/S 744 mmHg 53%
12:00 +35°C° 0 mm 1 m/S 744 mmHg 48%
13:00 +37°C° 0 mm 2 m/S 743 mmHg 44%
14:00 +37°C° 0.1 mm 2 m/S 742 mmHg 46%
15:00 +37°C° 0.1 mm 2 m/S 742 mmHg 48%
16:00 +36°C° 0.1 mm 2 m/S 741 mmHg 50%
17:00 +33°C° 0.2 mm 1 m/S 742 mmHg 60%
18:00 +31°C° 0.2 mm 1 m/S 743 mmHg 69%
19:00 +29°C° 0.2 mm 1 m/S 743 mmHg 79%
20:00 +28°C° 1 mm 1 m/S 744 mmHg 83%
21:00 +27°C° 1 mm 1 m/S 745 mmHg 87%
22:00 +26°C° 1 mm 1 m/S 745 mmHg 92%
23:00 +26°C° 1.2 mm 1 m/S 745 mmHg 93%
Mehr zeigen